Location: Enikep?du
(16.5133°N, 80.7066°E)
Time: 11:45:43
(UTC+00:00)

Cosmos 1833 Rocket - Pass Details

Date: 15 May 2026
Orbit: 831 x 839 km, 71.0° (Epoch: 6 June)

Event Time Altitude Azimuth Distance (km) Brightness Sun altitude
Rises 23:39:01 0° 340° (NNW) 3,381 5.9 -6.9°
Reaches altitude 10° 23:41:28 10° 338° (NNW) 2,447 5.1 -6.4°
Maximum altitude 23:47:03 72° 255° (WSW) 878 2.7 -5.2°
Drops below altitude 10° 23:52:39 10° 171° (S) 2,445 5.0 -3.9°
Sets 23:55:05 0° 169° (S) 3,378 5.7 -3.4°
